FW3681 Weather Reports


Display with metric or nautical units.
time (UTC)temp
F
wind
direction
speed
MPH
gust
MPH
rain 1hr
in
rain 24hr
in
rain mn
in
humidity
%
barometer
mb
20190420181810 68 250 3.0 12.0 0.00 0.00 0.00 22 1012.3
20190420181320 68 356 2.0 12.0 0.00 0.00 0.00 26 1012.2
20190420180819 68 231 1.0 11.0 0.00 0.00 0.00 25 1012.3
20190420180321 67 213 3.0 11.0 0.00 0.00 0.00 23 1012.2
20190420175809 67 284 2.0 6.0 0.00 0.00 0.00 24 1012.4
20190420175320 67 219 2.0 6.0 0.00 0.00 0.00 26 1012.3
20190420174820 67 309 3.0 9.0 0.00 0.00 0.00 25 1012.3
20190420174329 66 273 2.0 9.0 0.00 0.00 0.00 25 1012.4
20190420173812 66 243 3.0 7.0 0.00 0.00 0.00 26 1012.4
20190420173315 67 329 3.0 6.0 0.00 0.00 0.00 24 1012.6
20190420172820 66 203 3.0 10.0 0.00 0.00 0.00 26 1012.5
20190420172329 66 268 2.0 10.0 0.00 0.00 0.00 28 1012.4
20190420171809 66 278 2.0 6.0 0.00 0.00 0.00 27 1012.5
20190420171313 66 243 2.0 9.0 0.00 0.00 0.00 30 1012.5
20190420170816 66 185 3.0 9.0 0.00 0.00 0.00 27 1012.4
20190420170325 65 300 2.0 7.0 0.00 0.00 0.00 28 1012.6
20190420165809 66 267 2.0 7.0 0.00 0.05 0.00 28 1012.5
20190420165312 66 250 3.0 6.0 0.00 0.05 0.00 29 1012.5
20190420164814 65 288 2.0 6.0 0.00 0.05 0.00 30 1012.6
20190420164323 65 255 2.0 12.0 0.00 0.05 0.00 31 1012.7
20190420163826 65 273 2.0 8.0 0.00 0.05 0.00 33 1012.8
20190420163335 65 23 2.0 8.0 0.00 0.05 0.00 31 1012.9
20190420162816 65 100 2.0 7.0 0.00 0.05 0.00 32 1013.1
20190420162318 65 302 3.0 7.0 0.00 0.05 0.00 33 1013.1
20190420161820 64 235 3.0 7.0 0.00 0.05 0.00 33 1013.2
20190420161329 64 291 3.0 5.0 0.00 0.05 0.00 32 1013.2
20190420160812 64 254 2.0 6.0 0.00 0.05 0.00 35 1013.3
20190420160315 64 272 2.0 6.0 0.00 0.05 0.00 36 1013.3
20190420155817 63 265 2.0 6.0 0.00 0.05 0.00 36 1013.4
20190420155328 63 328 2.0 6.0 0.00 0.05 0.00 40 1013.3
20190420154812 63 255 2.0 6.0 0.00 0.05 0.00 39 1013.4
20190420154313 62 266 2.0 5.0 0.00 0.05 0.00 41 1013.3
20190420153817 62 133 2.0 7.0 0.00 0.05 0.00 38 1013.3
20190420153325 62 249 3.0 7.0 0.00 0.05 0.00 41 1013.4
20190420152809 62 9 2.0 5.0 0.00 0.05 0.00 43 1013.4
20190420152314 61 248 2.0 7.0 0.00 0.05 0.00 44 1013.4
20190420151826 61 283 2.0 7.0 0.00 0.05 0.00 43 1013.4
20190420151328 60 257 2.0 7.0 0.00 0.05 0.00 47 1013.6
20190420150810 60 359 2.0 9.0 0.00 0.05 0.00 48 1013.6
20190420150313 60 279 2.0 9.0 0.00 0.05 0.00 47 1013.5
20190420145822 60 261 2.0 11.0 0.00 0.05 0.00 50 1013.4
20190420145326 60 282 3.0 11.0 0.00 0.05 0.00 54 1013.5
20190420144827 59 231 3.0 9.0 0.00 0.05 0.00 56 1013.4
20190420144311 59 269 2.0 5.0 0.00 0.05 0.00 58 1013.5
20190420143820 59 280 2.0 5.0 0.00 0.05 0.00 60 1013.5
20190420143324 58 294 1.0 13.0 0.00 0.05 0.00 59 1013.5
20190420142827 58 283 3.0 13.0 0.00 0.05 0.00 59 1013.4
20190420142326 57 274 2.0 7.0 0.00 0.05 0.00 62 1013.3
20190420141828 57 281 2.0 5.0 0.00 0.05 0.00 63 1013.2
20190420141310 56 122 2.0 5.0 0.00 0.05 0.00 63 1013.2
20190420140817 56 248 2.0 6.0 0.00 0.05 0.00 66 1013.2
20190420140317 55 278 2.0 8.0 0.00 0.05 0.00 65 1013.1
20190420135819 55 289 2.0 4.0 0.00 0.07 0.00 66 1013.1
20190420135328 54 313 1.0 4.0 0.00 0.07 0.00 68 1013.1
20190420134813 54 286 2.0 7.0 0.00 0.07 0.00 68 1013.0
20190420134315 53 243 1.0 5.0 0.00 0.07 0.00 68 1013.1
20190420133819 53 285 2.0 5.0 0.00 0.07 0.00 68 1013.1
20190420133328 53 285 2.0 4.0 0.00 0.07 0.00 70 1013.2
20190420132809 52 231 1.0 6.0 0.00 0.07 0.00 71 1013.1
20190420132311 52 244 1.0 6.0 0.00 0.07 0.00 72 1013.0
20190420131814 51 226 1.0 5.0 0.00 0.07 0.00 72 1013.0
20190420131324 51 273 1.0 5.0 0.00 0.07 0.00 73 1012.8
20190420130811 50 293 1.0 4.0 0.00 0.07 0.00 74 1012.8
20190420130314 50 56 1.0 10.0 0.00 0.07 0.00 75 1012.8
20190420125822 50 263 1.0 10.0 0.00 0.07 0.00 75 1013.0
20190420125325 50 267 1.0 6.0 0.00 0.07 0.00 76 1012.8
20190420124809 49 254 1.0 4.0 0.00 0.07 0.00 76 1012.8
20190420124332 49 114 1.0 3.0 0.00 0.07 0.00 76 1012.7
20190420123813 49 253 0.0 3.0 0.00 0.07 0.00 78 1012.8
20190420123316 49 262 1.0 3.0 0.00 0.07 0.00 78 1012.7
20190420122824 48 274 1.0 3.0 0.00 0.07 0.00 79 1012.8
20190420122326 48 251 1.0 2.0 0.00 0.07 0.00 78 1012.7
20190420121828 48 262 1.0 3.0 0.00 0.07 0.00 79 1012.6
20190420121312 48 218 1.0 5.0 0.00 0.07 0.00 79 1012.5
20190420120818 48 332 1.0 5.0 0.00 0.07 0.00 80 1012.4
20190420120321 47 315 1.0 4.0 0.00 0.07 0.00 80 1012.3
20190420115822 47 42 1.0 4.0 0.00 0.13 0.00 80 1012.3
20190420115332 47 322 1.0 2.0 0.00 0.13 0.00 81 1012.2
20190420114816 47 6 1.0 2.0 0.00 0.13 0.00 81 1012.1
20190420114319 47 330 0.0 2.0 0.00 0.13 0.00 82 1012.1
20190420113821 46 134 0.0 2.0 0.00 0.13 0.00 82 1012.0
20190420113332 46 237 0.0 2.0 0.00 0.13 0.00 82 1011.9
20190420112813 46 267 0.0 2.0 0.00 0.13 0.00 82 1011.9
20190420112316 46 309 0.0 2.0 0.00 0.13 0.00 82 1011.7
20190420111824 46 252 0.0 2.0 0.00 0.13 0.00 82 1011.4
20190420111327 46 207 0.0 1.0 0.00 0.13 0.00 82 1011.3
20190420110811 46 238 0.0 1.0 0.00 0.13 0.00 83 1011.2
20190420110315 46 146 0.0 2.0 0.00 0.13 0.00 82 1011.3
20190420105830 46 238 0.0 1.0 0.00 0.30 0.00 82 1011.2
20190420105311 46 238 0.0 1.0 0.00 0.30 0.00 82 1011.2
20190420104817 46 106 0.0 1.0 0.00 0.30 0.00 82 1011.2
20190420104319 46 7 0.0 2.0 0.00 0.30 0.00 82 1011.3
20190420103827 46 354 0.0 2.0 0.00 0.30 0.00 81 1011.3
20190420103310 46 266 0.0 2.0 0.00 0.30 0.00 81 1011.2
20190420102812 46 267 1.0 3.0 0.00 0.30 0.00 81 1011.3
20190420102314 46 274 1.0 3.0 0.00 0.30 0.00 81 1011.2
20190420101823 46 40 0.0 2.0 0.00 0.30 0.00 81 1011.1
20190420101326 47 286 1.0 2.0 0.00 0.30 0.00 81 1011.1
20190420100835 47 56 0.0 2.0 0.00 0.30 0.00 80 1011.2
20190420100317 47 262 0.0 3.0 0.00 0.30 0.00 80 1011.2
20190420095819 47 293 1.0 3.0 0.00 0.36 0.00 80 1011.2
20190420095322 47 295 0.0 2.0 0.00 0.36 0.00 80 1011.2
20190420094831 47 288 0.0 2.0 0.00 0.36 0.00 80 1011.2
20190420094312 47 288 0.0 2.0 0.00 0.36 0.00 80 1011.2
20190420093811 47 288 1.0 5.0 0.00 0.36 0.00 80 1011.1
20190420093315 47 274 1.0 5.0 0.00 0.36 0.00 79 1010.9
20190420092824 47 278 0.0 4.0 0.00 0.36 0.00 79 1011.1
20190420092325 48 317 1.0 4.0 0.00 0.36 0.00 79 1011.1
20190420091827 48 303 1.0 4.0 0.00 0.36 0.00 79 1010.9
20190420091310 48 292 2.0 6.0 0.00 0.36 0.00 78 1010.9
20190420090819 48 254 1.0 6.0 0.00 0.36 0.00 78 1010.8
20190420090322 48 305 1.0 3.0 0.00 0.36 0.00 79 1010.8
20190420085314 48 288 0.0 3.0 0.00 0.39 0.00 79 1010.6
20190420084817 48 178 0.0 3.0 0.00 0.39 0.00 78 1010.8
20190420084319 48 269 0.0 3.0 0.00 0.39 0.00 78 1010.7
20190420083827 48 290 1.0 3.0 0.00 0.39 0.00 78 1010.7
20190420083309 48 255 0.0 2.0 0.00 0.39 0.00 78 1010.7
20190420082811 48 317 0.0 1.0 0.00 0.39 0.00 78 1010.7
20190420082315 48 261 0.0 2.0 0.00 0.39 0.00 78 1010.6
20190420081824 48 291 0.0 1.0 0.00 0.39 0.00 78 1010.5
20190420081311 48 288 0.0 2.0 0.00 0.39 0.00 78 1010.6
20190420080815 48 16 0.0 2.0 0.00 0.39 0.00 78 1010.6
20190420080324 48 82 0.0 2.0 0.00 0.39 0.00 78 1010.5
20190420075826 48 330 0.0 2.0 0.00 0.39 0.00 78 1010.5
20190420075308 48 307 0.0 2.0 0.00 0.39 0.00 78 1010.6
20190420074809 48 21 0.0 3.0 0.00 0.39 0.00 78 1010.6
20190420074318 48 289 0.0 3.0 0.00 0.39 0.00 78 1010.6
20190420073820 49 297 1.0 3.0 0.00 0.39 0.00 78 1010.6
20190420073322 49 314 1.0 2.0 0.00 0.39 0.00 77 1010.6
20190420072830 49 318 1.0 2.0 0.00 0.39 0.00 78 1010.7
20190420072314 49 249 0.0 2.0 0.00 0.39 0.00 77 1010.7
20190420071817 49 283 0.0 3.0 0.00 0.39 0.00 77 1010.7
20190420071319 49 257 1.0 3.0 0.00 0.39 0.00 77 1010.6
20190420070825 49 287 1.0 6.0 0.00 0.39 0.00 77 1010.6
20190420070328 49 330 0.0 6.0 0.00 0.39 0.00 77 1010.6
20190420065809 49 274 0.0 3.0 0.00 0.39 0.00 77 1010.7
20190420065319 49 254 0.0 2.0 0.00 0.39 0.00 77 1010.7
20190420064820 49 360 1.0 2.0 0.00 0.39 0.00 76 1010.7
20190420064322 49 221 0.0 2.0 0.00 0.39 0.00 76 1010.7
20190420063831 50 22 0.0 1.0 0.00 0.39 0.00 76 1010.8
20190420063313 50 290 0.0 2.0 0.00 0.39 0.00 76 1010.9
20190420062815 50 356 0.0 4.0 0.00 0.39 0.00 75 1010.9
20190420062318 50 276 0.0 3.0 0.00 0.39 0.00 75 1010.9
20190420061826 50 291 1.0 3.0 0.00 0.39 0.00 75 1010.9
20190420061328 50 356 1.0 4.0 0.00 0.39 0.00 75 1010.9
20190420060810 50 248 1.0 4.0 0.00 0.39 0.00 74 1010.8
20190420060312 50 264 1.0 3.0 0.00 0.39 0.00 74 1010.8
20190420055821 51 288 0.0 4.0 0.00 0.39 0.00 74 1010.9
20190420055323 51 210 1.0 4.0 0.00 0.39 0.00 74 1010.9
20190420054829 51 255 1.0 4.0 0.00 0.39 0.00 74 1011.0
20190420054311 51 285 1.0 3.0 0.00 0.39 0.00 74 1011.1
20190420053813 51 235 1.0 4.0 0.00 0.39 0.00 74 1011.0
20190420053315 51 281 1.0 4.0 0.00 0.39 0.00 74 1011.1
20190420052825 51 281 0.0 2.0 0.00 0.39 0.00 74 1011.0
20190420052327 51 284 0.0 2.0 0.00 0.39 0.00 74 1011.1
20190420051828 51 291 0.0 4.0 0.00 0.39 0.00 75 1011.1
20190420051311 51 297 0.0 2.0 0.00 0.39 0.00 75 1011.0
20190420050820 51 312 1.0 3.0 0.00 0.39 0.00 77 1011.1
20190420050323 51 90 0.0 3.0 0.00 0.39 0.00 76 1010.9
20190420045824 52 71 0.0 1.0 0.00 0.39 0.39 77 1011.0
20190420045334 52 254 0.0 1.0 0.00 0.39 0.39 77 1011.0
20190420044816 52 254 0.0 1.0 0.00 0.39 0.39 77 1011.0
20190420044318 52 255 0.0 1.0 0.00 0.39 0.39 76 1010.9
20190420043827 52 224 0.0 2.0 0.00 0.39 0.39 76 1010.9
20190420043310 52 113 0.0 2.0 0.00 0.39 0.39 76 1010.8
20190420042812 52 122 0.0 2.0 0.00 0.39 0.39 76 1010.7
20190420042315 52 23 0.0 1.0 0.00 0.39 0.39 77 1010.8
20190420041821 52 30 0.0 1.0 0.00 0.39 0.39 76 1010.8
20190420041324 53 30 0.0 1.0 0.00 0.39 0.39 76 1010.6
20190420040826 53 285 0.0 2.0 0.00 0.39 0.39 75 1010.7
20190420040335 53 290 0.0 2.0 0.00 0.39 0.39 76 1010.7
20190420035817 53 46 0.0 2.0 0.00 0.39 0.39 74 1010.7
20190420035319 53 338 0.0 1.0 0.00 0.39 0.39 74 1010.7
20190420034821 53 258 0.0 3.0 0.00 0.39 0.39 75 1010.8
20190420034311 53 306 0.0 3.0 0.00 0.39 0.39 74 1010.7
20190420033809 53 126 0.0 3.0 0.00 0.39 0.39 75 1010.8
20190420033311 53 239 0.0 1.0 0.00 0.39 0.39 76 1010.8
20190420032820 53 46 0.0 1.0 0.00 0.39 0.39 76 1010.8
20190420032323 53 295 0.0 1.0 0.00 0.39 0.39 76 1010.7
20190420031825 53 311 0.0 1.0 0.00 0.39 0.39 76 1010.8
20190420031334 52 51 0.0 1.0 0.00 0.39 0.39 76 1010.7
20190420030816 52 63 0.0 1.0 0.00 0.39 0.39 77 1010.6
20190420030318 52 63 0.0 1.0 0.00 0.39 0.39 76 1010.4
20190420025821 52 63 0.0 1.0 0.00 0.39 0.39 76 1010.4
20190420025330 52 63 0.0 1.0 0.00 0.39 0.39 76 1010.4
20190420024817 53 233 0.0 1.0 0.00 0.39 0.39 77 1010.5
20190420024319 52 349 0.0 1.0 0.00 0.39 0.39 75 1010.4
20190420023828 53 37 0.0 1.0 0.00 0.39 0.39 75 1010.3
20190420023310 53 79 0.0 1.0 0.00 0.39 0.39 75 1010.3
20190420022809 53 263 0.0 1.0 0.00 0.39 0.39 74 1010.2
20190420022311 53 296 0.0 1.0 0.00 0.39 0.39 73 1010.2
20190420021820 53 326 0.0 1.0 0.00 0.39 0.39 74 1010.0
20190420021322 53 327 0.0 1.0 0.00 0.39 0.39 73 1010.0
20190420020827 53 325 0.0 0.0 0.00 0.39 0.39 73 1010.0
20190420020311 53 325 0.0 1.0 0.00 0.39 0.39 73 1009.8
20190420015821 53 328 0.0 1.0 0.00 0.39 0.39 72 1009.8
20190420015323 54 328 0.0 1.0 0.00 0.39 0.39 71 1009.7
20190420014323 54 328 0.0 1.0 0.00 0.39 0.39 71 1009.6
20190420013827 54 283 0.0 1.0 0.00 0.39 0.39 71 1009.6
20190420013310 54 281 0.0 1.0 0.00 0.39 0.39 71 1009.4
20190420012812 54 281 0.0 1.0 0.00 0.39 0.39 70 1009.2
20190420012320 54 281 0.0 1.0 0.00 0.39 0.39 69 1009.3
20190420011822 55 292 0.0 3.0 0.00 0.39 0.39 69 1009.1
20190420011331 55 294 0.0 3.0 0.00 0.39 0.39 68 1009.2
20190420010814 55 280 0.0 1.0 0.00 0.39 0.39 67 1009.0
20190420010316 55 256 0.0 3.0 0.00 0.39 0.39 66 1009.0
20190420005819 55 300 1.0 4.0 0.00 0.39 0.39 66 1008.9
20190420005328 55 278 1.0 4.0 0.00 0.39 0.39 65 1008.8
20190420004808 56 287 0.0 3.0 0.00 0.39 0.39 66 1008.7
20190420004312 56 233 0.0 2.0 0.00 0.39 0.39 66 1008.6
20190420003812 56 336 1.0 2.0 0.00 0.39 0.39 65 1008.4
20190420003320 56 270 1.0 2.0 0.00 0.39 0.39 65 1008.3
20190420002822 57 276 1.0 3.0 0.00 0.39 0.39 65 1008.2
20190420002326 57 231 1.0 7.0 0.00 0.39 0.39 65 1008.1
20190420001816 57 257 2.0 7.0 0.00 0.39 0.39 66 1008.0
20190420001317 57 289 1.0 8.0 0.00 0.39 0.39 67 1007.9
20190420000819 57 256 2.0 8.0 0.00 0.39 0.39 68 1007.8
20190420000330 57 251 1.0 4.0 0.00 0.39 0.39 69 1007.8
20190419235817 57 244 1.0 3.0 0.00 0.39 0.39 69 1007.8
20190419235320 57 289 1.0 3.0 0.00 0.39 0.39 70 1007.7
20190419234823 57 291 1.0 4.0 0.00 0.39 0.39 69 1007.6
20190419234332 58 322 1.0 5.0 0.00 0.39 0.39 69 1007.4
20190419233816 58 290 2.0 5.0 0.00 0.39 0.39 68 1007.3
20190419233320 58 285 1.0 8.0 0.00 0.39 0.39 68 1007.4
20190419232822 58 297 2.0 8.0 0.00 0.39 0.39 67 1007.3
20190419232332 58 276 1.0 5.0 0.00 0.39 0.39 67 1007.0
20190419231812 58 292 1.0 4.0 0.00 0.39 0.39 67 1007.0
20190419231315 59 174 1.0 4.0 0.00 0.39 0.39 68 1007.0
20190419230824 59 282 1.0 2.0 0.00 0.39 0.39 67 1007.0
20190419230326 59 261 1.0 4.0 0.00 0.39 0.39 67 1006.9
20190419225808 59 251 1.0 5.0 0.00 0.39 0.39 67 1006.7
20190419225311 58 248 2.0 5.0 0.00 0.39 0.39 68 1006.7
20190419224820 59 349 1.0 5.0 0.00 0.39 0.39 66 1006.6
20190419224323 58 271 1.0 3.0 0.00 0.39 0.39 67 1006.7
20190419223826 58 295 1.0 4.0 0.00 0.39 0.39 67 1006.5
20190419223310 58 80 1.0 4.0 0.00 0.39 0.39 66 1006.5
20190419222820 58 300 1.0 4.0 0.00 0.39 0.39 68 1006.4
20190419222321 58 254 2.0 7.0 0.00 0.39 0.39 68 1006.5
20190419221823 58 276 1.0 6.0 0.00 0.39 0.39 71 1006.6
20190419221332 58 262 2.0 5.0 0.00 0.39 0.39 72 1006.5
20190419220814 58 280 2.0 8.0 0.00 0.39 0.39 71 1006.4
20190419220316 58 250 1.0 8.0 0.00 0.39 0.39 73 1006.1
20190419215826 58 257 1.0 6.0 0.00 0.39 0.39 74 1006.2
20190419215309 59 269 1.0 6.0 0.00 0.39 0.39 71 1006.1
20190419214812 60 284 2.0 9.0 0.00 0.39 0.39 71 1006.1
20190419214315 60 304 3.0 9.0 0.00 0.39 0.39 65 1005.8
20190419213824 61 290 1.0 9.0 0.00 0.39 0.39 63 1005.6
20190419213326 61 285 2.0 10.0 0.00 0.39 0.39 61 1005.5
20190419212827 62 292 3.0 10.0 0.00 0.39 0.39 59 1005.4
20190419212309 62 276 3.0 9.0 0.00 0.39 0.39 62 1005.4
20190419211820 62 253 2.0 5.0 0.00 0.39 0.39 62 1005.3
20190419211323 62 289 3.0 5.0 0.00 0.39 0.39 63 1005.0
20190419210825 62 297 2.0 5.0 0.00 0.39 0.39 64 1005.1
20190419210308 62 288 2.0 10.0 0.00 0.39 0.39 63 1005.1
20190419205817 62 262 3.0 10.0 0.00 0.39 0.39 62 1005.1
20190419205320 63 308 3.0 9.0 0.00 0.39 0.39 60 1005.0
20190419204310 64 243 3.0 9.0 0.00 0.39 0.39 62 1004.7
20190419203813 63 207 2.0 5.0 0.00 0.39 0.39 63 1004.7
20190419203317 63 288 2.0 5.0 0.00 0.39 0.39 63 1004.8
20190419202825 63 259 1.0 6.0 0.00 0.39 0.39 62 1004.8
20190419202327 64 285 2.0 6.0 0.00 0.39 0.39 60 1004.6
20190419201810 65 264 2.0 5.0 0.00 0.39 0.39 61 1004.6
20190419201312 64 203 1.0 6.0 0.00 0.39 0.39 62 1004.6
20190419200823 63 303 2.0 7.0 0.00 0.39 0.39 63 1004.4
20190419200308 63 277 2.0 9.0 0.00 0.39 0.39 63 1004.5
20190419195812 63 300 2.0 9.0 0.00 0.39 0.39 63 1004.5
20190419195313 63 266 3.0 7.0 0.00 0.39 0.39 64 1004.5
20190419194823 63 4 3.0 9.0 0.00 0.39 0.39 64 1004.6
20190419194324 63 272 3.0 12.0 0.00 0.39 0.39 63 1004.7
20190419193808 64 299 4.0 12.0 0.00 0.39 0.39 61 1004.6
20190419193318 65 277 2.0 10.0 0.00 0.39 0.39 62 1004.4
20190419192820 65 285 3.0 10.0 0.00 0.39 0.39 62 1004.5
20190419192323 64 271 2.0 7.0 0.00 0.39 0.39 63 1004.6
20190419191810 63 285 2.0 8.0 0.00 0.39 0.39 68 1004.6
20190419191319 63 292 2.0 6.0 0.00 0.39 0.39 69 1004.6
20190419190821 63 288 2.0 8.0 0.00 0.39 0.39 69 1004.7
20190419190324 62 308 3.0 8.0 0.00 0.39 0.39 70 1004.7
20190419185832 62 263 3.0 11.0 0.00 0.39 0.39 69 1004.8
20190419185315 63 283 2.0 13.0 0.00 0.39 0.39 72 1004.7
20190419184819 63 273 2.0 5.0 0.00 0.39 0.39 71 1004.7
20190419184327 63 356 2.0 12.0 0.00 0.39 0.39 74 1004.7
20190419183810 61 128 2.0 12.0 0.00 0.39 0.39 74 1004.8
20190419183314 61 241 3.0 11.0 0.00 0.39 0.39 72 1004.6
20190419182818 62 155 3.0 6.0 0.00 0.39 0.39 73 1004.5
20190419182328 62 263 2.0 7.0 0.00 0.39 0.39 74 1004.3